SCP
0 0 0 0 0 0 0 0 0 0 0 0 0 0 0 0 0 0 0 0 0 0 0 0 -0 -0 0 0 0 0 0 0 0 0 0 0 0 0 0 0 0 0 0 0 0 0 0
0 0 0 0 0 0 0 0 0 0 0 0 0 0 0 0 0 0 0 0 0 0 0 0 0 0 0 0 0 0 0 0 0 0 0 0 0 0 0 0 0 0 0 0 0 0 0
0 0 0 0 0 0 0 0 0 0 0 0 0 0 0 0 0 0 0 0 0 0 0 -0 0 0 0 0 0 0 0 0 0 0 0 0 0 0 0 0 0 0 0 0 0 0 0
0 0 0 0 0 0 0 0 0 0 0 0 0 0 0 0 0 0 0 0 0 0 0 0 0 0 0 0 0 0 0 0 0 0 0 0 0 0 0 0 0 0 0 0 0 0 0
0 0 0 0 0 0 0 0 0 0 0 0 0 0 0 0 0 0 0 0 0 0 0 0 0 0 0 0 0 0 0 0 0 0 0 0 0 0 0 0 0 0 0 0 0 0 0
0 0 0 0 0 0 0 0 0 0 0 0 0 0 0 0 0 0 0 0 0 0 0 0 0 0 0 0 0 0 0 0 0 0 0 0 0 0 0 0 0 0 0 0 0 0 0
0 0 0 0 0 0 0 0 0 0 0 0 0 0 0 0 0 0 0 0 0 0 0 0 0 0 0 0 0 0 0 0 0 0 0 0 0 0 0 0 0 0 0 0 0 0 0
0 0 0 0 0 0 0 0 0 0 0 0 0 0 0 0 0 0 0 0 0 0 0 0 0 0 0 0 0 0 0 0 0 0 0 0 0 0 0 0 0 0 0 0 0 0 0
0 0 0 0 0 0 0 0 0 0 0 0 0 0 0 0 0 0 0 0 0 0 0 0 0 0 0 0 0 0 0 0 0 0 0 0 0 0 0 0 0 0 0 0 0 0 0
0 0 0 0 0 0 0 0 0 0 0 0 0 0 0 0 0 0 0 0 0 0 0 0 0 0 0 0 0 0 0 0 0 0 0 0 0 0 0 0 0 0 0 0 0 0 0
0 0 0 0 0 0 0 0 0 0 0 0 0 0 0 0 0 0 0 0 0 0 0 0 0 0 0 0 0 0 0 0 0 0 0 0 0 0 0 0 0 0 0 0 0 0 0
0 0 0 0 0 0 0 0 0 0 0 0 0 0 0 0 0 0 0 0 0 0 0 0 0 0 0 0 0 0 0 0 0 0 0 0 0 0 0 0 0 0 0 0 0 0 0
0 0 0 0 0 0 0 0 0 0 0 0 0 0 0 0 0 0 0 0 0 0 0 0 0 0 0 0 0 0 0 0 0 0 0 0 0 0 0 0 0 0 0 0 0 0 0
0 0 0 0 0 0 0 0 0 0 0 0 0 0 0 0 0 0 0 0 0 0 0 0 0 0 0 0 0 0 0 0 0 0 0 0 0 0 0 0 0 0 0 0 0 0 0
0 0 0 0 0 0 0 0 0 0 0 0 0 0 0 0 0 0 0 0 0 0 0 0 0 0 0 0 0 0 0 0 0 0 0 0 0 0 0 0 0 0 0 0 0 0 0
0 0 0 0 0 0 0 0 0 0 0 0 0 0 0 0 0 0 0 0 0 0 0 0 0 0 0 0 0 0 0 0 0 0 0 0 0 0 0 0 0 0 0 0 0 0 0
0 0 0 0 0 0 0 0 0 0 0 0 0 0 0 0 0 0 0 0 0 0 0 0 0 0 0 0 0 0 0 0 0 0 0 0 0 0 0 0 0 0 0 0 0 0 0
0 0 0 0 0 0 0 0 0 0 0 0 0 0 0 0 0 0 0 0 0 0 0 0 0 0 0 0 0 0 0 0 0 0 0 0 0 0 0 0 0 0 0 0 0 0 0
0 0 0 0 0 0 0 0 0 0 0 0 0 0 0 0 0 0 0 0 0 0 0 0 0 0 0 0 0 0 0 0 0 0 0 0 0 0 0 0 0 0 0 0 0 0 0
0 0 0 0 0 0 0 0 0 0 0 0 0 0 0 0 0 0 0 0 0 0 0 0 0 0 0 0 0 0 0 0 0 0 0 0 0 0 0 0 0 0 0 0 0 0 0
0 0 0 0 0 0 0 0 0 0 0 0 0 0 0 0 0 0 0 0 0 0 0 0 0 0 0 0 0 0 0 0 0 0 0 0 0 0 0 0 0 0 0 0 0 0 0
0 0 0 0 0 0 0 0 0 0 0 0 0 0 0 0 0 0 0 0 0 0 0 0 0 0 0 0 0 0 0 0 0 0 0 0 0 0 0 0 0 0 0 0 0 0 0
0 0 0 0 0 0 0 0 0 0 0 0 0 0 0 0 0 0 0 0 0 0 0 0 0 0 0 0 0 0 0 0 0 0 0 0 0 0 0 0 0 0 0 0 0 0 0
0 0 0 0 0 0 0 0 0 0 0 0 0 0 0 0 0 0 0 0 0 0 0 0 0 0 0 0 0 0 0 0 0 0 0 0 0 0 0 0 0 0 0 0 0 0 0
0 0 0 0 0 0 0 0 0 0 0 0 0 0 0 0 0 0 0 0 0 0 0 0 0 0 0 0 0 0 0 0 0 0 0 0 0 0 0 0 0 0 0 0 0 0 0
0 0 0 0 0 0 0 0 0 0 0 0 0 0 0 0 0 0 0 0 0 0 0 0 0 0 0 0 0 0 0 0 0 0 0 0 0 0 0 0 0 0 0 0 0 0 0
0 0 0 0 0 0 0 0 0 0 0 0 0 0 0 0 0 0 0 0 0 0 0 0 0 0 0 0 0 0 0 0 0 0 0 0 0 0 0 0 0 0 0 0 0 0 0
0 0 0 0 0 -0 0 0 0 0 0 0 0 0 0 0 0 0 0 0 0 0 0 0 0 0 0 0 0 0 0 0 0 0 0 0 0 0 0 0 0 0 0 0 0 0 0
0 0 0 0 0 0 -0 0 0 0 0 0 0 -0 -0 0 0 0 0 0 0 0 0 0 0 0 0 0 0 0 0 0 0 0 0 0 0 0 0 0 0 0 0 0 0 0 0
Wind_Speed_500mb
35 33 31 29 26 25 24 22 21 22 22 23 25 26 27 27 27 26 23 26 27 28 31 31 26 16 11 12 12 14 12 6 7 12 14 17 17 8 3 3 7 3 3 7 10 16 22
41 40 39 37 34 31 30 28 27 26 26 27 29 30 31 32 32 30 28 25 29 31 30 33 26 18 14 12 13 17 17 15 12 11 12 12 9 11 5 1 2 3 11 18 18 26 22
46 48 46 45 44 41 36 34 31 30 29 30 31 34 34 36 36 34 31 27 28 32 33 33 28 18 21 24 16 21 19 17 14 11 10 8 5 8 5 2 7 6 10 13 5 7 8
41 48 52 52 51 49 47 41 39 35 33 33 34 36 37 38 39 38 35 30 29 32 34 30 24 17 15 17 19 24 22 18 15 13 11 8 6 4 3 4 9 8 7 9 3 7 2
41 43 47 55 58 56 51 50 47 43 40 37 37 38 40 41 43 42 39 35 32 33 30 25 16 13 15 15 22 27 26 20 16 14 10 7 4 5 4 6 9 12 7 6 17 13 5
40 41 43 47 52 58 58 54 53 50 46 44 43 43 43 42 43 46 43 39 32 26 22 17 19 8 20 12 16 25 30 26 19 12 6 5 4 6 7 6 7 9 8 10 14 5 7
39 39 39 44 47 50 54 57 55 55 52 51 50 48 46 44 41 42 44 34 12 10 15 15 6 14 20 26 20 20 24 21 17 9 9 3 5 13 16 14 8 7 8 15 12 10 7
39 40 40 41 43 43 48 52 55 56 56 55 53 52 51 44 41 37 33 15 11 12 24 31 46 54 55 33 16 26 27 15 13 13 10 6 17 12 8 7 10 7 7 16 17 3 12
43 44 42 41 42 42 42 45 51 53 55 57 56 53 52 44 38 36 26 15 12 13 8 22 31 31 24 30 19 18 29 19 10 12 14 14 7 13 11 9 10 8 11 11 15 12 9
45 44 47 46 42 41 42 46 43 50 50 52 53 53 49 40 33 24 17 9 8 8 6 15 9 9 12 13 10 19 35 14 5 20 16 13 5 14 9 11 15 9 11 6 8 10 9
48 49 48 49 47 43 41 44 48 41 42 45 49 46 46 37 18 16 9 4 4 2 9 11 8 9 14 11 5 8 26 14 11 12 13 15 16 11 11 15 15 15 6 5 3 6 7
48 52 54 52 51 49 44 43 44 42 37 38 41 41 33 30 30 29 21 7 7 8 15 10 9 10 8 9 6 10 9 8 5 8 5 12 2 12 13 5 6 9 5 9 7 3 4
71 59 60 60 58 53 49 45 42 44 38 37 37 38 28 30 18 20 22 18 4 11 6 11 13 9 6 13 10 14 14 13 16 8 14 2 10 4 7 7 4 6 10 7 9 5 17
81 78 70 66 65 61 54 49 44 41 45 40 37 36 33 29 24 16 33 6 18 16 16 6 5 4 12 14 9 11 10 11 15 3 7 11 18 18 11 14 14 12 15 11 15 8 19
81 83 77 74 71 67 62 56 50 44 43 43 42 40 40 33 26 28 24 12 18 18 16 18 5 6 9 9 8 11 17 12 17 26 22 14 16 5 3 5 7 11 11 6 9 5 5
71 71 73 76 77 78 73 66 60 52 48 49 43 37 52 34 32 33 4 42 16 19 16 10 27 22 20 16 16 17 18 10 12 30 1 8 9 4 5 5 5 8 7 8 4 6 11
67 81 72 67 75 73 71 67 72 62 57 56 44 16 19 40 46 30 18 20 15 31 31 18 21 16 19 19 17 15 16 7 13 11 10 11 10 5 6 18 21 6 7 1 4 10 12
72 66 71 76 70 75 68 66 72 65 66 70 58 10 35 68 26 17 30 14 18 18 44 20 13 24 24 23 20 18 25 25 41 27 21 15 11 17 30 2 3 4 16 24 13 15 7
74 68 69 69 65 71 76 70 65 72 78 83 32 37 41 90 20 30 8 10 19 11 19 31 24 16 13 20 9 20 22 13 47 23 23 19 8 15 14 3 3 13 15 14 2 5 24
55 69 69 66 65 69 71 76 75 72 79 92 30 10 18 60 40 26 30 20 16 14 35 16 9 17 5 14 19 18 10 13 45 30 36 46 17 23 38 24 11 12 22 30 45 24 34
46 49 61 70 74 74 70 66 66 76 77 95 33 13 22 14 38 36 18 12 36 19 21 25 21 37 18 25 34 39 17 4 4 8 1 19 30 37 43 56 12 15 26 33 40 57 36
49 52 53 52 63 58 62 75 72 78 68 113 36 19 26 13 40 46 47 44 58 35 14 18 39 20 42 45 59 53 42 9 20 11 12 4 25 24 48 40 17 18 63 35 48 52 48
51 57 53 55 50 60 65 64 67 69 66 71 81 42 57 31 25 23 45 66 68 52 51 65 40 34 39 54 69 74 40 19 28 29 22 15 10 7 50 9 13 15 61 60 68 52 51
43 42 51 46 55 55 54 67 62 54 63 72 51 57 21 20 33 43 51 57 65 66 61 58 70 47 105 71 46 28 32 31 22 37 24 19 16 18 30 8 30 63 42 21 39 60 53
46 46 44 43 50 42 56 56 62 62 58 46 49 39 25 25 31 43 49 54 62 73 57 61 80 91 69 52 16 19 13 19 53 50 44 37 22 23 26 33 49 52 24 15 20 50 48
45 48 49 43 43 47 47 54 60 58 46 41 54 45 21 13 17 62 45 55 39 39 36 56 95 70 50 14 10 18 19 12 11 11 7 41 43 37 31 32 46 66 30 18 8 42 75
46 49 51 47 41 45 44 46 46 46 45 46 46 35 24 13 28 20 16 30 46 42 20 8 29 25 64 23 23 22 24 14 20 18 16 9 20 45 47 46 34 50 19 24 20 79 10
53 49 47 48 41 40 40 39 34 37 37 35 45 40 29 16 31 47 47 33 25 37 26 11 12 15 13 28 18 19 16 25 25 41 37 35 19 18 20 28 45 13 17 40 70 95 54
60 54 51 51 48 49 39 38 37 34 29 30 45 39 41 39 38 60 60 56 66 64 44 19 9 7 30 15 15 13 14 11 36 35 36 35 37 35 28 17 13 37 52 116 122 89 77
Wind_Direction_500mb
248 248 248 247 250 257 263 268 274 284 295 303 305 308 310 314 317 321 327 328 326 326 329 332 337 330 283 267 252 220 222 251 324 343 356 14 21 29 37 337 2 97 302 298 276 258 246
244 249 254 255 253 252 257 262 270 276 283 290 297 302 306 309 311 314 319 323 319 317 318 321 320 311 265 246 251 232 238 249 273 312 339 8 22 359 103 9 124 278 278 269 263 254 243
250 249 250 255 260 260 257 262 264 267 273 280 286 292 298 302 305 308 312 315 314 311 313 314 311 294 267 268 253 236 239 245 252 285 307 334 2 359 337 16 338 304 325 316 217 220 247
262 260 255 255 256 261 266 264 266 268 271 276 281 287 291 295 298 302 305 309 310 307 307 303 300 284 265 255 244 231 238 237 249 275 279 304 336 52 51 327 5 24 49 3 218 162 328
262 261 262 260 258 260 261 267 269 270 273 274 277 280 285 292 296 298 302 305 307 303 296 294 277 258 266 265 236 230 233 239 245 264 250 276 320 81 72 74 10 8 283 294 313 204 131
269 267 265 263 264 264 263 263 268 272 272 273 276 279 282 287 294 299 303 307 307 291 283 271 248 241 247 239 230 229 231 239 250 246 232 195 98 68 49 84 243 243 284 263 248 230 195
274 272 271 268 266 264 265 267 265 269 271 274 276 278 281 286 291 298 306 325 305 284 250 232 234 251 283 259 246 239 232 230 230 210 189 64 91 214 226 202 177 165 199 241 252 242 246
274 277 279 280 276 267 267 266 267 268 269 271 276 279 282 285 290 297 304 320 301 292 303 263 256 256 258 252 252 236 220 202 184 204 121 41 236 202 126 144 170 165 225 263 279 301 192
277 276 279 282 284 285 280 273 264 265 267 270 272 277 281 287 290 294 291 288 277 294 266 284 252 252 246 233 230 231 202 193 175 180 189 177 205 119 151 171 173 212 196 237 240 327 255
273 276 277 278 281 285 288 290 280 270 268 268 269 270 273 281 289 282 278 255 259 322 43 270 242 237 209 181 243 203 188 185 195 209 164 231 194 173 171 214 155 244 211 234 286 3 258
267 271 274 276 277 280 281 285 291 282 278 283 280 272 270 264 245 250 243 205 256 41 303 268 201 190 181 184 146 199 189 196 193 183 134 240 171 177 191 215 166 225 140 168 146 221 346
265 266 267 270 273 275 276 276 275 286 282 286 291 288 271 264 252 243 229 204 144 49 246 289 180 185 148 199 198 148 166 175 122 137 254 248 262 174 206 89 159 126 97 61 59 72 289
261 266 267 264 266 269 271 271 264 270 279 286 286 289 264 252 246 229 209 157 45 192 295 233 216 188 194 188 213 180 168 176 176 152 222 273 211 178 162 116 62 106 76 316 324 347 239
255 259 265 263 261 263 264 265 266 262 268 283 287 277 273 248 223 191 173 72 215 202 207 41 95 80 196 158 242 181 158 216 239 95 112 185 273 178 177 196 181 176 170 168 233 233 280
256 258 258 260 256 255 256 258 258 255 257 266 269 269 258 242 212 188 187 214 210 180 194 167 109 178 238 227 206 156 211 216 209 173 190 177 262 107 168 141 142 183 189 168 100 113 340
265 260 259 259 254 252 251 251 251 249 244 248 254 265 255 235 208 190 169 236 212 196 147 153 198 183 207 201 175 186 179 198 222 196 127 221 303 170 158 134 45 177 170 78 11 257 264
268 265 263 261 266 269 261 252 250 241 237 233 231 234 224 202 182 188 220 227 213 212 185 174 206 222 209 188 196 206 220 228 207 165 160 145 157 224 124 212 168 132 213 129 163 163 204
261 262 263 257 255 258 262 253 256 249 233 221 203 207 186 175 179 205 233 197 214 218 209 240 198 212 197 185 202 219 212 215 184 151 163 202 159 233 233 211 332 221 199 176 202 228 252
262 261 259 256 252 257 262 261 261 256 242 211 206 210 184 179 203 216 238 270 237 204 194 224 229 202 195 196 229 192 220 201 170 157 167 177 218 248 260 90 13 221 199 222 236 143 207
274 262 257 261 262 262 263 261 256 252 258 231 201 175 179 207 217 209 221 248 243 246 244 254 258 194 127 237 235 256 227 206 196 195 209 165 179 198 233 231 133 185 217 218 220 227 233
279 279 272 261 260 264 258 258 254 251 261 235 207 198 192 195 219 221 193 202 231 231 216 212 249 230 205 237 247 242 241 235 216 238 207 174 229 227 245 255 181 211 236 217 216 228 219
272 272 269 273 266 263 267 259 258 252 254 221 220 182 188 233 215 211 214 229 243 238 184 221 228 231 229 237 234 247 233 176 217 6 189 218 247 246 254 255 197 249 255 240 231 237 243
272 272 268 266 268 260 258 255 252 254 246 228 232 242 209 200 209 209 213 222 229 232 246 245 237 239 243 239 246 257 271 246 243 227 195 175 195 205 251 196 118 270 247 240 255 240 232
287 291 272 276 272 265 264 259 254 247 242 236 235 230 197 229 210 210 220 215 226 224 227 227 219 230 242 251 264 264 263 244 227 244 196 208 211 228 248 92 228 250 269 206 231 251 239
283 281 285 278 269 284 269 264 260 256 253 255 255 260 250 239 227 223 224 223 229 235 230 237 238 232 245 231 239 251 230 247 246 248 240 229 212 237 230 232 252 284 220 160 200 265 247
280 281 279 276 276 276 283 280 268 267 273 279 266 271 271 294 240 218 217 222 226 238 240 233 241 241 224 193 202 222 226 181 246 291 2 227 231 234 233 239 244 248 266 156 104 269 260
278 275 274 273 275 279 286 284 282 283 286 286 280 281 305 273 275 277 237 223 229 229 244 196 211 205 216 223 225 228 228 183 220 206 215 171 210 224 232 243 247 253 141 135 192 251 155
275 278 278 279 270 273 282 281 294 282 281 283 289 284 287 270 266 261 261 294 285 223 229 179 150 202 193 214 226 226 223 214 225 225 219 215 189 215 231 246 254 177 136 210 240 256 263
268 272 273 276 281 277 267 275 283 284 294 290 288 294 301 278 261 282 269 259 262 262 268 240 278 150 209 212 209 224 224 204 216 232 218 234 211 221 200 207 208 195 218 228 238 245 246
Wind_Speed_850mb
35 33 31 29 26 25 24 22 21 22 22 23 25 26 27 27 27 26 23 26 27 28 31 31 26 16 11 12 12 14 12 6 7 12 14 17 17 8 3 3 7 3 3 7 10 16 22
41 40 39 37 34 31 30 28 27 26 26 27 29 30 31 32 32 30 28 25 29 31 30 33 26 18 14 12 13 17 17 15 12 11 12 12 9 11 5 1 2 3 11 18 18 26 22
46 48 46 45 44 41 36 34 31 30 29 30 31 34 34 36 36 34 31 27 28 32 33 33 28 18 21 24 16 21 19 17 14 11 10 8 5 8 5 2 7 6 10 13 5 7 8
41 48 52 52 51 49 47 41 39 35 33 33 34 36 37 38 39 38 35 30 29 32 34 30 24 17 15 17 19 24 22 18 15 13 11 8 6 4 3 4 9 8 7 9 3 7 2
41 43 47 55 58 56 51 50 47 43 40 37 37 38 40 41 43 42 39 35 32 33 30 25 16 13 15 15 22 27 26 20 16 14 10 7 4 5 4 6 9 12 7 6 17 13 5
40 41 43 47 52 58 58 54 53 50 46 44 43 43 43 42 43 46 43 39 32 26 22 17 19 8 20 12 16 25 30 26 19 12 6 5 4 6 7 6 7 9 8 10 14 5 7
39 39 39 44 47 50 54 57 55 55 52 51 50 48 46 44 41 42 44 34 12 10 15 15 6 14 20 26 20 20 24 21 17 9 9 3 5 13 16 14 8 7 8 15 12 10 7
39 40 40 41 43 43 48 52 55 56 56 55 53 52 51 44 41 37 33 15 11 12 24 31 46 54 55 33 16 26 27 15 13 13 10 6 17 12 8 7 10 7 7 16 17 3 12
43 44 42 41 42 42 42 45 51 53 55 57 56 53 52 44 38 36 26 15 12 13 8 22 31 31 24 30 19 18 29 19 10 12 14 14 7 13 11 9 10 8 11 11 15 12 9
45 44 47 46 42 41 42 46 43 50 50 52 53 53 49 40 33 24 17 9 8 8 6 15 9 9 12 13 10 19 35 14 5 20 16 13 5 14 9 11 15 9 11 6 8 10 9
48 49 48 49 47 43 41 44 48 41 42 45 49 46 46 37 18 16 9 4 4 2 9 11 8 9 14 11 5 8 26 14 11 12 13 15 16 11 11 15 15 15 6 5 3 6 7
48 52 54 52 51 49 44 43 44 42 37 38 41 41 33 30 30 29 21 7 7 8 15 10 9 10 8 9 6 10 9 8 5 8 5 12 2 12 13 5 6 9 5 9 7 3 4
71 59 60 60 58 53 49 45 42 44 38 37 37 38 28 30 18 20 22 18 4 11 6 11 13 9 6 13 10 14 14 13 16 8 14 2 10 4 7 7 4 6 10 7 9 5 17
81 78 70 66 65 61 54 49 44 41 45 40 37 36 33 29 24 16 33 6 18 16 16 6 5 4 12 14 9 11 10 11 15 3 7 11 18 18 11 14 14 12 15 11 15 8 19
81 83 77 74 71 67 62 56 50 44 43 43 42 40 40 33 26 28 24 12 18 18 16 18 5 6 9 9 8 11 17 12 17 26 22 14 16 5 3 5 7 11 11 6 9 5 5
71 71 73 76 77 78 73 66 60 52 48 49 43 37 52 34 32 33 4 42 16 19 16 10 27 22 20 16 16 17 18 10 12 30 1 8 9 4 5 5 5 8 7 8 4 6 11
67 81 72 67 75 73 71 67 72 62 57 56 44 16 19 40 46 30 18 20 15 31 31 18 21 16 19 19 17 15 16 7 13 11 10 11 10 5 6 18 21 6 7 1 4 10 12
72 66 71 76 70 75 68 66 72 65 66 70 58 10 35 68 26 17 30 14 18 18 44 20 13 24 24 23 20 18 25 25 41 27 21 15 11 17 30 2 3 4 16 24 13 15 7
74 68 69 69 65 71 76 70 65 72 78 83 32 37 41 90 20 30 8 10 19 11 19 31 24 16 13 20 9 20 22 13 47 23 23 19 8 15 14 3 3 13 15 14 2 5 24
55 69 69 66 65 69 71 76 75 72 79 92 30 10 18 60 40 26 30 20 16 14 35 16 9 17 5 14 19 18 10 13 45 30 36 46 17 23 38 24 11 12 22 30 45 24 34
46 49 61 70 74 74 70 66 66 76 77 95 33 13 22 14 38 36 18 12 36 19 21 25 21 37 18 25 34 39 17 4 4 8 1 19 30 37 43 56 12 15 26 33 40 57 36
49 52 53 52 63 58 62 75 72 78 68 113 36 19 26 13 40 46 47 44 58 35 14 18 39 20 42 45 59 53 42 9 20 11 12 4 25 24 48 40 17 18 63 35 48 52 48
51 57 53 55 50 60 65 64 67 69 66 71 81 42 57 31 25 23 45 66 68 52 51 65 40 34 39 54 69 74 40 19 28 29 22 15 10 7 50 9 13 15 61 60 68 52 51
43 42 51 46 55 55 54 67 62 54 63 72 51 57 21 20 33 43 51 57 65 66 61 58 70 47 105 71 46 28 32 31 22 37 24 19 16 18 30 8 30 63 42 21 39 60 53
46 46 44 43 50 42 56 56 62 62 58 46 49 39 25 25 31 43 49 54 62 73 57 61 80 91 69 52 16 19 13 19 53 50 44 37 22 23 26 33 49 52 24 15 20 50 48
45 48 49 43 43 47 47 54 60 58 46 41 54 45 21 13 17 62 45 55 39 39 36 56 95 70 50 14 10 18 19 12 11 11 7 41 43 37 31 32 46 66 30 18 8 42 75
46 49 51 47 41 45 44 46 46 46 45 46 46 35 24 13 28 20 16 30 46 42 20 8 29 25 64 23 23 22 24 14 20 18 16 9 20 45 47 46 34 50 19 24 20 79 10
53 49 47 48 41 40 40 39 34 37 37 35 45 40 29 16 31 47 47 33 25 37 26 11 12 15 13 28 18 19 16 25 25 41 37 35 19 18 20 28 45 13 17 40 70 95 54
60 54 51 51 48 49 39 38 37 34 29 30 45 39 41 39 38 60 60 56 66 64 44 19 9 7 30 15 15 13 14 11 36 35 36 35 37 35 28 17 13 37 52 116 122 89 77
Wind_Direction_850mb
248 248 248 247 250 257 263 268 274 284 295 303 305 308 310 314 317 321 327 328 326 326 329 332 337 330 283 267 252 220 222 251 324 343 356 14 21 29 37 337 2 97 302 298 276 258 246
244 249 254 255 253 252 257 262 270 276 283 290 297 302 306 309 311 314 319 323 319 317 318 321 320 311 265 246 251 232 238 249 273 312 339 8 22 359 103 9 124 278 278 269 263 254 243
250 249 250 255 260 260 257 262 264 267 273 280 286 292 298 302 305 308 312 315 314 311 313 314 311 294 267 268 253 236 239 245 252 285 307 334 2 359 337 16 338 304 325 316 217 220 247
262 260 255 255 256 261 266 264 266 268 271 276 281 287 291 295 298 302 305 309 310 307 307 303 300 284 265 255 244 231 238 237 249 275 279 304 336 52 51 327 5 24 49 3 218 162 328
262 261 262 260 258 260 261 267 269 270 273 274 277 280 285 292 296 298 302 305 307 303 296 294 277 258 266 265 236 230 233 239 245 264 250 276 320 81 72 74 10 8 283 294 313 204 131
269 267 265 263 264 264 263 263 268 272 272 273 276 279 282 287 294 299 303 307 307 291 283 271 248 241 247 239 230 229 231 239 250 246 232 195 98 68 49 84 243 243 284 263 248 230 195
274 272 271 268 266 264 265 267 265 269 271 274 276 278 281 286 291 298 306 325 305 284 250 232 234 251 283 259 246 239 232 230 230 210 189 64 91 214 226 202 177 165 199 241 252 242 246
274 277 279 280 276 267 267 266 267 268 269 271 276 279 282 285 290 297 304 320 301 292 303 263 256 256 258 252 252 236 220 202 184 204 121 41 236 202 126 144 170 165 225 263 279 301 192
277 276 279 282 284 285 280 273 264 265 267 270 272 277 281 287 290 294 291 288 277 294 266 284 252 252 246 233 230 231 202 193 175 180 189 177 205 119 151 171 173 212 196 237 240 327 255
273 276 277 278 281 285 288 290 280 270 268 268 269 270 273 281 289 282 278 255 259 322 43 270 242 237 209 181 243 203 188 185 195 209 164 231 194 173 171 214 155 244 211 234 286 3 258
267 271 274 276 277 280 281 285 291 282 278 283 280 272 270 264 245 250 243 205 256 41 303 268 201 190 181 184 146 199 189 196 193 183 134 240 171 177 191 215 166 225 140 168 146 221 346
265 266 267 270 273 275 276 276 275 286 282 286 291 288 271 264 252 243 229 204 144 49 246 289 180 185 148 199 198 148 166 175 122 137 254 248 262 174 206 89 159 126 97 61 59 72 289
261 266 267 264 266 269 271 271 264 270 279 286 286 289 264 252 246 229 209 157 45 192 295 233 216 188 194 188 213 180 168 176 176 152 222 273 211 178 162 116 62 106 76 316 324 347 239
255 259 265 263 261 263 264 265 266 262 268 283 287 277 273 248 223 191 173 72 215 202 207 41 95 80 196 158 242 181 158 216 239 95 112 185 273 178 177 196 181 176 170 168 233 233 280
256 258 258 260 256 255 256 258 258 255 257 266 269 269 258 242 212 188 187 214 210 180 194 167 109 178 238 227 206 156 211 216 209 173 190 177 262 107 168 141 142 183 189 168 100 113 340
265 260 259 259 254 252 251 251 251 249 244 248 254 265 255 235 208 190 169 236 212 196 147 153 198 183 207 201 175 186 179 198 222 196 127 221 303 170 158 134 45 177 170 78 11 257 264
268 265 263 261 266 269 261 252 250 241 237 233 231 234 224 202 182 188 220 227 213 212 185 174 206 222 209 188 196 206 220 228 207 165 160 145 157 224 124 212 168 132 213 129 163 163 204
261 262 263 257 255 258 262 253 256 249 233 221 203 207 186 175 179 205 233 197 214 218 209 240 198 212 197 185 202 219 212 215 184 151 163 202 159 233 233 211 332 221 199 176 202 228 252
262 261 259 256 252 257 262 261 261 256 242 211 206 210 184 179 203 216 238 270 237 204 194 224 229 202 195 196 229 192 220 201 170 157 167 177 218 248 260 90 13 221 199 222 236 143 207
274 262 257 261 262 262 263 261 256 252 258 231 201 175 179 207 217 209 221 248 243 246 244 254 258 194 127 237 235 256 227 206 196 195 209 165 179 198 233 231 133 185 217 218 220 227 233
279 279 272 261 260 264 258 258 254 251 261 235 207 198 192 195 219 221 193 202 231 231 216 212 249 230 205 237 247 242 241 235 216 238 207 174 229 227 245 255 181 211 236 217 216 228 219
272 272 269 273 266 263 267 259 258 252 254 221 220 182 188 233 215 211 214 229 243 238 184 221 228 231 229 237 234 247 233 176 217 6 189 218 247 246 254 255 197 249 255 240 231 237 243
272 272 268 266 268 260 258 255 252 254 246 228 232 242 209 200 209 209 213 222 229 232 246 245 237 239 243 239 246 257 271 246 243 227 195 175 195 205 251 196 118 270 247 240 255 240 232
287 291 272 276 272 265 264 259 254 247 242 236 235 230 197 229 210 210 220 215 226 224 227 227 219 230 242 251 264 264 263 244 227 244 196 208 211 228 248 92 228 250 269 206 231 251 239
283 281 285 278 269 284 269 264 260 256 253 255 255 260 250 239 227 223 224 223 229 235 230 237 238 232 245 231 239 251 230 247 246 248 240 229 212 237 230 232 252 284 220 160 200 265 247
280 281 279 276 276 276 283 280 268 267 273 279 266 271 271 294 240 218 217 222 226 238 240 233 241 241 224 193 202 222 226 181 246 291 2 227 231 234 233 239 244 248 266 156 104 269 260
278 275 274 273 275 279 286 284 282 283 286 286 280 281 305 273 275 277 237 223 229 229 244 196 211 205 216 223 225 228 228 183 220 206 215 171 210 224 232 243 247 253 141 135 192 251 155
275 278 278 279 270 273 282 281 294 282 281 283 289 284 287 270 266 261 261 294 285 223 229 179 150 202 193 214 226 226 223 214 225 225 219 215 189 215 231 246 254 177 136 210 240 256 263
268 272 273 276 281 277 267 275 283 284 294 290 288 294 301 278 261 282 269 259 262 262 268 240 278 150 209 212 209 224 224 204 216 232 218 234 211 221 200 207 208 195 218 228 238 245 246